User: anonymous   Login
Location: Unspecified
(0.0000°N, 0.0000°E)
Time: 05:47:36
(UTC+00:00)
Language:

PRISMA - Orbit

View from above orbital plane
View from above orbital plane
View from above satellite
View from above satellite

Ground track
Ground track

The orbit data is extracted from the following two-line orbital elements,

1 36599U 10028B   18344.53838869  .00000024  00000-0  16100-4 0  9991
2 36599  98.3208 197.7846 0056381  95.6508 265.1121 14.56024468449377
Epoch (UTC): 10 December 2018 12:55:16
Eccentricity: 0.0056381
inclination: 98.3208°
perigee height: 666 km
apogee height: 746 km
right ascension of ascending node: 197.7846°
argument of perigee: 95.6508°
revolutions per day: 14.56024468
mean anomaly at epoch: 265.1121°
orbit number at epoch: 44937

The dashed part of the orbit path shows where the satellite is in the earth's shadow,  

DLR